Lexington Weather

Lexington, Massachusetts, USA

32°F
1/27/2021 11:53pm 
  • Lexington Conditions: Overcast
  • Temperature: 32.4°F / 0.2°CColder 0.1°F than last hour.
  • Dew Point: 30.0°FDecreased 0.6°Fsince last hour.
  • Relative Humidity: 91%Decreased 1.0% since last hour.
  • Wind: Wind from N N 2 mph, 10-min avg: 2 mph, gust: 4 mph
  • Barometer: 29.99 in Steady
  • Visibility: 10 miles
  • Snow Today: 1.5 in
  •   

Regional Weather Roundup
for Boston / Norton, MA

        
000
ASUS41 KBOX 232204
RWRBOX

REGIONAL WEATHER ROUNDUP
NATIONAL WEATHER SERVICE BOSTON/NORTON MA
500 PM EST SAT JAN 23 2021

NOTE:  "FAIR" INDICATES FEW OR NO CLOUDS BELOW 12,000 FEET WITH NO 
SIGNIFICANT WEATHER AND/OR OBSTRUCTIONS TO VISIBILITY.

MAZALL-232300-
EASTERN MASSACHUSETTS
  
CITY           SKY/WX    TMP DP  RH WIND       PRES   REMARKS
BOSTON         PTCLDY    24   3  40 NW18G31   29.92R WCI  10          
BEVERLY        CLEAR     23   4  44 NW16G30   29.89R WCI  10          
LAWRENCE       CLEAR     22   5  48 W13G23    29.93R WCI  10          
BEDFORD        CLEAR     23   4  44 NW12G23   29.92R WCI  12          
BLUE HILL        N/A     21   3  45 NW24G38   29.85R WCI   4          
NORWOOD        CLEAR     26   3  37 NW17G28   29.92R WCI  13          
MARSHFIELD     CLEAR     27   5  39 NW17G26   29.89R WCI  14          
PLYMOUTH       CLEAR     26   4  38 NW24G33   29.88R WCI  11          
TAUNTON        CLEAR     28   4  35 NW8G29    29.90R WCI  20          
NEW BEDFORD    CLEAR     27   7  42 W13G28    29.90R WCI  16          
$$

MAZALL-232300-
CAPE COD AND THE ISLANDS
  
CITY           SKY/WX    TMP DP  RH WIND       PRES   REMARKS
FALMOUTH       NOT AVBL                                               
HYANNIS        CLEAR     28   6  39 NW16G26   29.85R WCI  16          
CHATHAM        MOCLDY    28   9  44 NW10G23   29.86R WCI  19          
PROVINCETOWN   CLOUDY    27  13  55 NW25G37   29.87R WCI  12          
NANTUCKET      PTCLDY    28  10  46 NW17G30   29.86R WCI  16          
MARTHAS VNYRD  CLEAR     28   8  43 NW13G23   29.88R WCI  17          
$$
 
MAZALL-232300-
CENTRAL AND WESTERN MASSACHUSETTS
  
CITY           SKY/WX    TMP DP  RH WIND       PRES   REMARKS
WORCESTER      CLEAR     20   3  48 NW23G32   29.88R WCI   3          
FITCHBURG      CLEAR     22   3  44 NW20G29   29.93R WCI   7          
ORANGE         CLEAR     21   5  50 W15G22    29.95R WCI   8          
SPRINGFIELD    NOT AVBL                                               
WESTFIELD      CLEAR     21   1  41 NW16G28   30.00R WCI   7          
NORTH ADAMS    MOCLDY    19   3  49 W20G30    30.01R WCI   3          
PITTSFIELD     CLEAR     15   2  56 W22G35    29.95S WCI  -3          
$$
 
RIZALL-232300-
RHODE ISLAND
  
CITY           SKY/WX    TMP DP  RH WIND       PRES   REMARKS
PROVIDENCE     PTCLDY    26   4  38 W10G33    29.93R WCI  16          
NEWPORT        CLEAR     25   7  46 NW16G28   29.91R WCI  12          
BLOCK ISLAND   CLEAR     26   6  42 NW20G26   29.96R WCI  12          
SMITHFIELD     CLEAR     23   6  48 NW18G28   29.91R WCI   9          
WESTERLY       CLEAR     24   0  35 NW13G28   29.96R WCI  12          
$$
 
CTZALL-232300-
CONNECTICUT
  
CITY           SKY/WX    TMP DP  RH WIND       PRES   REMARKS
BRADLEY INTL   PTCLDY    22   0  38 NW20G31   30.01R WCI   7          
HARTFORD       CLEAR     25  -1  32 NW18G33   30.02R WCI  11          
BRIDGEPORT     CLEAR     30  -1  26 NW18G30   30.03R WCI  18          
DANBURY        CLEAR     27  -1  30 NW14G28   30.03R WCI  16          
GROTON         CLEAR     26   1  34 NW22G32   29.97R WCI  12          
NEW HAVEN      CLEAR     30   0  27 NW18G30   30.02R WCI  18          
CHESTER        FAIR      25  -2  30 NW12G22   29.97R WCI  14          
MERIDEN        CLEAR     26  -1  31 NW13      30.02R WCI  15          
WILLIMANTIC    CLEAR     23   2  40 NW14G25   29.98R WCI  11          
OXFORD         CLEAR     24   1  36 NW16G25   29.98S WCI  11          
$$

MEZ002-015-021-024-NHZ003-005-008-011-012-014-VTZ005-008-232300-
NORTHERN NEW ENGLAND
  
CITY           SKY/WX    TMP DP  RH WIND       PRES   REMARKS
PORTLAND ME    PTCLDY    20   4  50 NW14      29.85R WCI   7          
BANGOR ME      PTCLDY    19   4  51 NW18G25   29.75R WCI   4          
CONCORD NH     MOCLDY    19   1  45 NW18G30   29.93R WCI   4          
MANCHESTER NH  PTCLDY    21   3  45 NW13G24   29.92R WCI   9          
NASHUA NH      CLEAR     21   5  50 NW14      29.94R WCI   8          
PORTSMOUTH NH  NOT AVBL                                               
JAFFREY NH     CLEAR     18   2  49 VRB5      29.89R WCI  11          
KEENE NH       CLEAR     19   4  51 NW12      29.96R WCI   7          
BURLINGTON VT  MOCLDY    13   0  56 NW15      30.09R WCI  -3          
MT. WASHINGTON BLWGSNOW -15 -15 100 NW72G81     N/A  VSB 1/16WCI -57  
$$

NYZ052-076-232300-
EASTERN NEW YORK
  
CITY           SKY/WX    TMP DP  RH WIND       PRES   REMARKS
ALBANY         PTCLDY    16   3  56 W16G30    30.10R WCI   1          
NEW YORK CITY  PTCLDY    32   8  36 NW32      30.07R WCI  17          
$$
 
ANZALL-232300-
MARINE OBSERVATIONS
  
STATION/POSITION TIME  TEMP    WIND        PRES    VSBY  WAVE
                       AIR SEA DIR/SP/G                  HT/PER
                 (UTC) (F)     (DEG/KT/KT) (MB)    (MI)  (FT/S)
BOSTON BUOY      2140   28 43  310/ 23/ 29 1012.3R
BUZZARDS BAY     2100          310/ 25/ 28 1013.0R
NANTUCKET SOUND  2140      39                N/A
MASS BAY-STELLWA 2104   27     300/ 27/ 33 1009.9R  1 7/8  4/ 5
ISLE OF SHOALS   2100   22     300/ 31/ 34 1009.9R
S OF BLOCK IS    2126      47                N/A           8/ 6
$$

......................KEY.........................
  SKY/WX - SKY CONDITION/PRESENT WEATHER
  TMP    - TEMPERATURE IN FAHRENHEIT
  DWPT   - DEWPOINT IN FAHRENHEIT
  RH     - RELATIVE HUMIDITY IN PERCENT
  WIND   - DIRECTION AND SPEED IN MPH
  PRES   - MEAN SEA LEVEL PRESSURE IN INCHES OF HG
  WCI    - WIND CHILL INDEX
  VSB    - VISIBILITY IN MILES
  HX     - HEAT INDEX
  TC     - TEMPERATURE IN CELSIUS
  VRB    - VARIABLE WIND DIRECTION
  N/A    - NOT AVAILABLE
  
      

Other recent Regional Weather Roundups

Wed Jan 27, 11:04pm

Wed Jan 27, 10:05pm

Wed Jan 27, 9:04pm

Wed Jan 27, 8:04pm

Wed Jan 27, 7:04pm

Wed Jan 27, 6:04pm

Wed Jan 27, 5:05pm

Wed Jan 27, 4:05pm

Wed Jan 27, 3:04pm

Wed Jan 27, 2:04pm

Wed Jan 27, 1:05pm

Wed Jan 27, 12:04pm

Wed Jan 27, 11:04am

Wed Jan 27, 10:05am

Wed Jan 27, 9:04am

Wed Jan 27, 8:04am

Wed Jan 27, 7:04am

Wed Jan 27, 6:04am

Wed Jan 27, 5:04am

Wed Jan 27, 4:04am

Wed Jan 27, 3:05am

Wed Jan 27, 2:04am

Wed Jan 27, 1:05am

Wed Jan 27, 12:04am

Tue Jan 26, 11:04pm

Tue Jan 26, 10:04pm

Tue Jan 26, 9:04pm

Tue Jan 26, 8:04pm

Tue Jan 26, 7:04pm

Tue Jan 26, 6:04pm

Tue Jan 26, 5:04pm

Tue Jan 26, 4:05pm

Tue Jan 26, 3:04pm

Tue Jan 26, 2:04pm

Tue Jan 26, 1:04pm

Tue Jan 26, 12:04pm

Tue Jan 26, 11:04am

Tue Jan 26, 10:05am

Tue Jan 26, 9:04am

Tue Jan 26, 8:04am

Tue Jan 26, 7:04am

Tue Jan 26, 6:04am

Tue Jan 26, 5:04am

Tue Jan 26, 4:04am

Tue Jan 26, 3:04am

Tue Jan 26, 2:04am

Tue Jan 26, 1:04am

Tue Jan 26, 12:04am

Mon Jan 25, 11:04pm

Mon Jan 25, 9:05pm

Mon Jan 25, 8:04pm

Mon Jan 25, 7:04pm

Mon Jan 25, 6:05pm

Mon Jan 25, 5:04pm

Mon Jan 25, 4:04pm

Mon Jan 25, 3:04pm

Mon Jan 25, 2:05pm

Mon Jan 25, 1:04pm

Mon Jan 25, 12:05pm

Mon Jan 25, 11:04am

Mon Jan 25, 10:04am

Mon Jan 25, 9:04am

Mon Jan 25, 8:05am

Mon Jan 25, 6:04am

Mon Jan 25, 5:04am

Mon Jan 25, 4:04am

Mon Jan 25, 3:04am

Mon Jan 25, 2:04am

Mon Jan 25, 1:04am

Sun Jan 24, 11:04pm

Sun Jan 24, 10:04pm

Sun Jan 24, 9:04pm

Sun Jan 24, 6:04pm

Sun Jan 24, 5:04pm

Sun Jan 24, 4:05pm

Sun Jan 24, 3:05pm

Sun Jan 24, 2:05pm

Sun Jan 24, 1:04pm

Sun Jan 24, 12:04pm

Sun Jan 24, 11:04am

Sun Jan 24, 10:04am

Sun Jan 24, 9:04am

Sun Jan 24, 8:04am

Sun Jan 24, 7:04am

Sun Jan 24, 6:04am

Sun Jan 24, 5:04am

Sun Jan 24, 4:04am

Sun Jan 24, 3:04am

Sun Jan 24, 2:04am

Sun Jan 24, 1:04am

Sun Jan 24, 12:04am

Sat Jan 23, 11:04pm

Sat Jan 23, 10:04pm

Sat Jan 23, 9:04pm

Sat Jan 23, 8:04pm

Sat Jan 23, 7:04pm

Sat Jan 23, 6:04pm

Sat Jan 23, 4:05pm

Sat Jan 23, 3:05pm

Sat Jan 23, 2:05pm

Sat Jan 23, 12:04pm

Sat Jan 23, 11:04am

Sat Jan 23, 10:04am

Sat Jan 23, 9:04am

Sat Jan 23, 8:04am

Sat Jan 23, 7:04am

Sat Jan 23, 6:04am

Sat Jan 23, 5:04am

Sat Jan 23, 4:04am

Meta data:

ID: f9156642-c3ea-4433-8413-8ed524e0d056
Link: https://api.weather.gov/products/f9156642-c3ea-4433-8413-8ed524e0d056